Flag for Norway Weather past 2 weeks in Lørenskog, Norway

Now
51 °F

Cool.


Feels Like: 51 °F
Forecast: 38 / 65 °F
Wind: 2 mph from Northeast

Location: Oslo-Blindern

Current Time: Sep 17, 2014 at 4:38:10 AM

Latest Report: Sep 17, 2014 at 4:00 AM


Visibility: N/A

Pressure: 30.32 "Hg

Humidity: 92%

Dew point: 49 °F

Location of LørenskogLocation

Historic Weather in Lørenskog — Graph

°F

Lørenskog temperature yesterday

Maximum temperature yesterday: 65 °F (at 1:00 PM)
Minimum temperature yesterday: 49 °F (at 8:00 AM)
Average temperature yesterday: 56 °F

Past Weeks' High & Low Weather Summary

 TemperatureHumidityPressure
High72 °F (Sep 3, 3:00 PM)98% (Sep 3, 5:00 AM)30.48 "Hg (Sep 3, 5:00 AM)
Low46 °F (Sep 15, 7:00 AM)42% (Sep 14, 3:00 PM)29.76 "Hg (Sep 9, 6:00 AM)
Average59 °F78%30.19 "Hg
* Reported Sep 2 3:00 AM — Sep 17 3:00 AM, Lørenskog, Weather by CustomWeather, © 2014

Note: Actual official high and low records may vary slightly from our data, if they occured in-between our weather recording intervals... More about our weather records

Advertising

Lørenskog weather history for previous 24 hours

 ConditionsComfort  
Time TempWeatherWind HumidityBarometerVisibility
3:00 AM
Sep 17
52 °FCool.1 mph91%30.32 "HgN/A
2:00 AM52 °FPassing clouds.1 mph91%30.32 "Hg43 mi
1:00 AM53 °FCool.2 mph87%30.32 "HgN/A
12:00 AM51 °FCool.1 mph89%30.33 "HgN/A
11:00 PM
Sep 16
52 °FCool.3 mph88%30.33 "HgN/A
10:00 PM53 °FCool.3 mph85%30.33 "HgN/A
9:00 PM54 °FCool.2 mph83%30.32 "HgN/A
8:00 PM56 °FPassing clouds.2 mph81%30.32 "Hg47 mi
7:00 PM60 °FCool.2 mph73%30.31 "HgN/A
6:00 PM62 °FCool.1 mph65%30.31 "HgN/A
5:00 PM64 °FOvercast.1 mph60%30.32 "Hg47 mi
4:00 PM64 °FMild.1 mph60%30.33 "HgN/A
3:00 PM63 °FMild.1 mph62%30.35 "HgN/A
2:00 PM63 °FPartly sunny.2 mph63%30.36 "Hg6 mi
1:00 PM65 °FMild.2 mph60%30.37 "HgN/A
12:00 PM62 °FMild.2 mph66%30.38 "HgN/A
11:00 AM60 °FPartly sunny.1 mph73%30.40 "Hg25 mi
10:00 AM57 °FCool.No wind79%30.40 "HgN/A
9:00 AM56 °FCool.No wind80%30.40 "HgN/A
8:00 AM49 °FScattered clouds.No wind95%30.40 "Hg37 mi
7:00 AM49 °FCool.2 mph91%30.40 "HgN/A
6:00 AM50 °FCool.2 mph90%30.40 "HgN/A
5:00 AM50 °FClear.2 mph90%30.40 "Hg37 mi
4:00 AM51 °FCool.3 mph88%30.40 "HgN/A
Weather by CustomWeather, © 2014

See weather overviewHow to use our weather pages